Location: Enborne
(51.3833°N, 1.3667°W)
Time: 14:00:09
(UTC+00:00)

Cosmos 1844 Rocket - Pass Details

Date: 19 January 2021
Orbit: 826 x 843 km, 71.0° (Epoch: 05 March)

Event Time Altitude Azimuth Distance (km) Brightness Sun altitude
Exits shadow 05:25:36 14° 202° (SSW) 2,150 4.6 -23.5°
Drops below altitude 10° 05:26:30 10° 196° (SSW) 2,429 5.0 -23.4°
Sets 05:29:10 0° 186° (S) 3,355 5.8 -23.0°
